EW6434 Weather Reports


time (UTC)temp
C
wind
direction
speed
KPH
gust
KPH
rain 1hr
cm
rain 24hr
cm
rain mn
cm
humidity
%
barometer
mb
20260504020014 8 286 0.0 0.0 0.00 0.00 0.00 36 1011.8
20260504014510 10 286 0.0 0.0 0.00 0.00 0.00 32 1011.8
20260504013014 10 286 0.0 0.0 0.00 0.00 0.00 31 1011.5
20260504011510 11 153 0.0 0.0 0.00 0.00 0.00 30 1011.7
20260504010009 12 252 0.0 3.2 0.00 0.00 0.00 27 1011.7
20260504004508 12 199 0.0 9.7 0.00 0.00 0.00 27 1012.0
20260504003005 13 206 1.6 9.7 0.00 0.00 0.00 26 1012.0
20260504001505 13 249 0.0 12.9 0.00 0.00 0.00 27 1012.2
20260504000004 13 243 0.0 6.4 0.00 0.00 0.00 25 1012.1
20260503234503 12 221 0.0 11.3 0.00 0.00 0.00 26 1012.4
20260503233002 12 153 1.6 11.3 0.00 0.00 0.00 24 1012.3
20260503231600 13 84 1.6 9.7 0.00 0.00 0.00 28 1012.5
20260503230100 12 268 0.0 4.8 0.00 0.00 0.00 30 1012.6
20260503224554 12 172 1.6 16.1 0.00 0.00 0.00 29 1012.8
20260503223052 12 268 0.0 6.4 0.00 0.00 0.00 29 1012.9
20260503221550 11 240 0.0 4.8 0.00 0.00 0.00 30 1013.2
20260503220050 11 122 0.0 3.2 0.00 0.00 0.00 30 1013.4
20260503214546 11 122 0.0 4.8 0.00 0.00 0.00 31 1013.7
20260503213047 11 147 0.0 4.8 0.00 0.00 0.00 30 1014.0
20260503211543 12 133 1.6 6.4 0.00 0.00 0.00 30 1014.3
20260503210041 11 163 3.2 11.3 0.00 0.00 0.00 32 1014.7
20260503204540 11 9 0.0 4.8 0.00 0.00 0.00 32 1014.9
20260503203043 12 127 1.6 8.0 0.00 0.00 0.00 34 1015.0
20260503201537 10 158 0.0 11.3 0.00 0.00 0.00 35 1015.5
20260503200036 11 247 0.0 11.3 0.00 0.00 0.00 34 1015.6
20260503194536 11 212 1.6 8.0 0.00 0.00 0.00 32 1015.8
20260503193033 12 199 0.0 4.8 0.00 0.00 0.00 32 1015.9
20260503191532 11 251 0.0 6.4 0.00 0.00 0.00 33 1016.1
20260503190035 11 269 1.6 6.4 0.00 0.00 0.00 32 1016.4
20260503184527 10 145 1.6 6.4 0.00 0.00 0.00 31 1016.7
20260503183026 11 205 0.0 6.4 0.00 0.00 0.00 31 1016.9
20260503181525 11 206 0.0 8.0 0.00 0.00 0.00 29 1017.1
20260503180024 11 248 0.0 8.0 0.00 0.00 0.00 32 1017.3
20260503174529 11 214 0.0 12.9 0.00 0.00 0.00 31 1017.4
20260503173031 12 72 1.6 12.9 0.00 0.00 0.00 31 1017.4
20260503171516 10 77 1.6 12.9 0.00 0.00 0.00 33 1017.9
20260503081518 -1 75 0.0 0.0 0.00 0.00 0.00 73 1020.9
20260503071516 -1 75 0.0 0.0 0.00 0.00 0.00 73 1021.3
20260503054509 0 75 0.0 0.0 0.00 0.00 0.00 70 1020.4
20260503053002 0 75 0.0 0.0 0.00 0.00 0.00 70 1020.2
20260503051503 0 75 0.0 0.0 0.00 0.00 0.00 69 1020.2
20260503050001 0 75 0.0 0.0 0.00 0.00 0.00 68 1020.1
20260503044604 1 75 0.0 0.0 0.00 0.00 0.00 67 1020.1
20260503043100 1 236 0.0 0.0 0.00 0.00 0.00 66 1020.1
20260503041606 1 236 0.0 0.0 0.00 0.00 0.00 64 1020.0
20260503040100 2 236 0.0 0.0 0.00 0.00 0.00 63 1019.7
20260503034600 2 236 0.0 0.0 0.00 0.00 0.00 61 1019.5
20260503033058 3 236 0.0 0.0 0.00 0.00 0.00 60 1019.3
20260503031558 3 255 0.0 3.2 0.00 0.00 0.00 59 1019.2
20260503024558 4 264 0.0 0.0 0.00 0.00 0.00 58 1018.7
20260503023106 5 264 0.0 0.0 0.00 0.00 0.00 54 1018.5
20260503021601 6 264 0.0 1.6 0.00 0.00 0.00 51 1018.3